This is the latest recevied weather packets stored in our database for station/object W1RCY. If no packets are shown the sender has not sent any weather packets the latest 10 day(s).
| Time | Temp. | Humidity | Pressure | Rain* | Wind** | Luminosity | Snow |
|---|---|---|---|---|---|---|---|
| 1778111392 | 14.44° C | 99% | 1003 hPa | 0 mm | - | 0 W/m² | - |
| 1778111090 | 14.44° C | 99% | 1003 hPa | 0 mm | - | 0 W/m² | - |
| 1778110787 | 14.44° C | 99% | 1003 hPa | 0 mm | - | 0 W/m² | - |
| 1778110483 | 14.44° C | 99% | 1003 hPa | 0 mm | - | 0 W/m² | - |
| 1778110180 | 14.44° C | 99% | 1003.2 hPa | 0 mm | - | 0 W/m² | - |
| 1778109876 | 14.44° C | 99% | 1003.1 hPa | 0 mm | - | 1 W/m² | - |
| 1778109572 | 14.44° C | 99% | 1003.1 hPa | 0 mm | - | 3 W/m² | - |
| 1778109270 | 14.44° C | 99% | 1003 hPa | 0 mm | - | 4 W/m² | - |
| 1778108967 | 14.44° C | 99% | 1003.1 hPa | 0 mm | - | 3 W/m² | - |
| 1778108663 | 14.44° C | 99% | 1003.1 hPa | 0 mm | - | 6 W/m² | - |
| 1778108360 | 14.44° C | 99% | 1003 hPa | 0 mm | - | 6 W/m² | - |
| 1778108057 | 14.44° C | 99% | 1003.2 hPa | 0 mm | - | 4 W/m² | - |
| 1778107754 | 14.44° C | 99% | 1003.3 hPa | 0 mm | - | 3 W/m² | - |
| 1778107452 | 14.44° C | 99% | 1003.1 hPa | 0 mm | - | 4 W/m² | - |
| 1778107147 | 15° C | 99% | 1003.1 hPa | 0 mm | - | 10 W/m² | - |
| 1778106843 | 15° C | 99% | 1003.3 hPa | 0 mm | - | 16 W/m² | - |
| 1778106540 | 15° C | 99% | 1003.1 hPa | 0 mm | - | 15 W/m² | - |
| 1778106236 | 15° C | 99% | 1003.3 hPa | 0 mm | - | 19 W/m² | - |
| 1778105934 | 15° C | 99% | 1003.3 hPa | 0 mm | - | 12 W/m² | - |
| 1778105631 | 15° C | 99% | 1003.4 hPa | 0 mm | - | 18 W/m² | - |
| 1778105328 | 15° C | 99% | 1003.1 hPa | 0 mm | - | 23 W/m² | - |
| 1778105024 | 15° C | 99% | 1003.3 hPa | 0 mm | - | 18 W/m² | - |
| 1778104721 | 15° C | 99% | 1003.5 hPa | 0 mm | - | 35 W/m² | - |
| 1778104417 | 15° C | 99% | 1003.5 hPa | 0 mm | - | 24 W/m² | - |
| 1778104113 | 15° C | 99% | 1003.7 hPa | 0 mm | - | 49 W/m² | - |
* Rain latest hour (hover to see other rain measurements)
** Current wind speed in m/s (hover to see current wind gust speed)